Location: Unspecified
(0.0000°N, 0.0000°E)
Time: 10:53:49
(UTC+00:00)

CBERS-1 - Pass Details

Date: 17 June 2023
Orbit: 767 x 776 km, 98.8° (Epoch: 21 September)

Event Time Altitude Azimuth Distance (km) Brightness Sun altitude
Rises 03:24:19 0° 8° (N) 3,240 7.7 -35.4°
Reaches altitude 10° 03:26:38 10° 6° (N) 2,315 6.8 -34.9°
Enters shadow 03:28:06 20° 3° (N) 1,743 6.1 -34.6°
